Location: Aix-en-Ergny
(50.5839°N, 1.9996°E)
Time: 10:46:43
(UTC+00:00)

USA 234 - Pass Details

Date: 23 October 2019
Orbit: 1102 x 1106 km, 123.0° (Epoch: 12 November)

Event Time Altitude Azimuth Distance (km) Brightness Sun altitude
Rises 02:50:20 0° 109° (ESE) 3,916 6.7 -34.3°
Reaches altitude 10° 02:52:48 10° 107° (ESE) 2,959 6.0 -34.0°
Maximum altitude 02:59:19 75° 24° (NNE) 1,144 3.3 -33.0°
Enters shadow 02:59:22 75° 20° (NNE) 1,144 3.3 -33.0°
